This is the latest recevied weather packets stored in our database for station/object VE8SKI. If no packets are shown the sender has not sent any weather packets the latest 10 day(s).
| Time | Temp. | Humidity | Pressure | Rain* | Wind** | Luminosity | Snow |
|---|---|---|---|---|---|---|---|
| 1777650377 | 3.89° C | 81% | 1008.2 hPa | 0 mm | 3.13 m/s, 1° | - | - |
| 1777650078 | 4.44° C | 81% | 1008.2 hPa | 0 mm | 2.68 m/s, 14° | - | - |
| 1777649782 | 3.89° C | 82% | 1008.2 hPa | 0 mm | 4.02 m/s, 143° | - | - |
| 1777649478 | 3.89° C | 82% | 1008.3 hPa | 0 mm | 3.13 m/s, 21° | - | - |
| 1777649179 | 3.89° C | 82% | 1008.2 hPa | 0 mm | 3.58 m/s, 8° | - | - |
| 1777648876 | 3.89° C | 83% | 1008.3 hPa | 0 mm | 2.68 m/s, 27° | - | - |
| 1777648577 | 3.89° C | 83% | 1008.4 hPa | 0 mm | 3.13 m/s, 7° | - | - |
| 1777648277 | 3.89° C | 83% | 1008.4 hPa | 0 mm | 3.13 m/s, 359° | - | - |
| 1777647977 | 3.89° C | 84% | 1008.5 hPa | 0 mm | 3.13 m/s, 11° | - | - |
| 1777647678 | 3.89° C | 84% | 1008.4 hPa | 0 mm | 3.58 m/s, 14° | - | - |
| 1777647378 | 3.89° C | 85% | 1008.5 hPa | 0 mm | 2.68 m/s, 359° | - | - |
| 1777647076 | 3.33° C | 85% | 1008.5 hPa | 0 mm | 4.02 m/s, 27° | - | - |
| 1777646776 | 3.33° C | 86% | 1008.5 hPa | 0 mm | 2.68 m/s, 359° | - | - |
| 1777646476 | 3.33° C | 86% | 1008.6 hPa | 0 mm | 3.13 m/s, 11° | - | - |
| 1777646177 | 3.33° C | 86% | 1008.6 hPa | 0 mm | 3.58 m/s, 321° | - | - |
| 1777645877 | 3.33° C | 87% | 1008.6 hPa | 0 mm | 2.68 m/s, 357° | - | - |
| 1777645578 | 3.33° C | 87% | 1008.7 hPa | 0 mm | 2.68 m/s, 14° | - | - |
| 1777645275 | 3.33° C | 87% | 1008.7 hPa | 0 mm | 4.47 m/s, 0° | - | - |
| 1777644975 | 3.33° C | 88% | 1008.7 hPa | 0 mm | 4.47 m/s, 37° | - | - |
| 1777644676 | 3.33° C | 89% | 1008.7 hPa | 0 mm | 2.24 m/s, 13° | - | - |
| 1777644376 | 3.33° C | 89% | 1008.7 hPa | 0 mm | 2.68 m/s, 359° | - | - |
| 1777644076 | 3.33° C | 89% | 1008.7 hPa | 0 mm | 3.13 m/s, 10° | - | - |
| 1777643777 | 3.33° C | 90% | 1008.7 hPa | 0 mm | 4.92 m/s, 0° | - | - |
| 1777643474 | 3.33° C | 90% | 1008.6 hPa | 0 mm | 3.13 m/s, 0° | - | - |
| 1777643174 | 3.33° C | 91% | 1008.5 hPa | 0 mm | 4.47 m/s, 21° | - | - |
* Rain latest hour (hover to see other rain measurements)
** Current wind speed in m/s (hover to see current wind gust speed)